IRIDIUM 118

Last updated on Sun Jun 21 2026 00:03:14 GMT+0000 (Coordinated Universal Time)

1 42807U 17039E 26171.45313488 .00000157 00000+0 49050-4 0 9998 2 42807 86.3973 352.2697 0002204 89.0804 271.0645 14.34217720470412
UTC large
Height (km)
Speed (km/s)
/
Latitude / Longitude
Inclination (degrees)
Orbital Period (minutes)
Azimuth
Elevation
Range (km)
Doppler Factor

Next 0 passes for location: London (51.5072 / 0.1276)

No passes found over London.
IRIDIUM 118